Meath Environmental Platform

Observations for Trim Market St

Time AQI Temp °C Hum % Pres Pa CO μg/m³ H₂S μg/m³ NO μg/m³ NO₂ μg/m³ O₃ μg/m³ SO₂ μg/m³ PM1 μg/m³ PM2.5 μg/m³ PM10 μg/m³
Monday 13 July 2026
16:49 1 33.1 29 66,297 0 0 0 4.72 27.08 0 2.14 6.06 6.67
16:48 1 33.1 29 66,292 0 0 0 0 36.5 0 1.43 4.43 4.88
16:47 1 33.1 29 66,311 0 0 0 1.62 36.14 0 1.43 4.98 5.47
16:46 1 33.1 29 66,303 0 0 0 0 27.76 0 1.43 5.52 6.07
16:45 1 33.1 29 66,290 0 0 0 0 34.88 0 2.14 5.52 5.79
16:44 1 33.1 29 66,276 0 0 0 0 23.48 0 1.43 4.44 4.88
16:43 1 33.1 29 66,256 0 0 0 1.32 33.11 0 1.43 4.43 4.88
16:42 1 33.1 29 66,258 0 0 0 1.32 30.43 0 2.14 5.52 6.07
16:41 1 33.1 29 66,260 0 0 0 1.01 24.29 0 1.43 4.97 5.47
16:39 1 33 30 66,268 0 0 0 1.99 29.83 0 2.14 5.5 6.05
16:30 1 32.8 30 66,238 0 0 0 2 36.36 0 2.14 5.48 6.02
16:27 1 32.6 30 66,236 0 2.99 0 10.02 33.63 0 2.14 6.01 6.66
16:26 1 32.6 30 66,240 0 5.17 0 11.53 40 0 2.14 6.01 6.61
16:23 1 32.5 30 66,212 0 1.25 0 7.51 39.4 0 2.14 5.49 6.04
16:22 1 32.5 30 66,202 0 0 0 1.62 42.46 0 0.71 4.95 5.45
16:20 1 32.5 29 66,194 0 0 0 0 41.87 0 0.71 4.42 4.87
16:19 1 32.5 29 66,221 0 0 0 1.87 43.1 0 0.71 4.43 4.87
16:18 1 32.6 29 66,223 0 0 0 0 37.69 0 2.14 5.52 5.79
16:17 1 32.6 29 66,227 0 0 0 4.18 41.49 0 1.43 5.53 6.08
16:15 1 32.7 29 66,210 0 0 0 0 43.54 0 0.71 4.45 4.89